North Las Vegas, NV

5:30 AM PST on December 14, 2017 (GMT -0800)
North Las Vegas

Weather History for KVGT - September, 2012

Change the Weather History Date:

Thursday, September 20, 2012

  Actual Average Record
Temperature  
Mean Temperature 83 °F 80 °F  
Max Temperature 96 °F 92 °F 100 °F (2009)
Min Temperature 70 °F 68 °F 59 °F (2004)
Degree Days  
Heating Degree Days 0 0  
Month to date heating degree days 0  
Since 1 July heating degree days 0  
Cooling Degree Days 18 15  
Month to date cooling degree days 362  
Year to date cooling degree days 3008  
Growing Degree Days 33 (Base 50)    
Moisture  
Dew Point 35 °F    
Average Humidity 19    
Maximum Humidity 33    
Minimum Humidity 9    
Precipitation  
Precipitation 0.00 in 0.01 in 0.13 in (2005)
Month to date precipitation 0.28  
Year to date precipitation 3.88  
Sea Level Pressure  
Sea Level Pressure 29.96 in    
Wind  
Wind Speed 3 mph (NW)    
Max Wind Speed 8 mph    
Max Gust Speed -    
Visibility 10 miles    
Events      
T = Trace of Precipitation, MM = Missing Value Source: NWS Daily Summary

Daily Weather History Graph

Daily Weather History Graph

Search for Another Location

Airport or City:

Trip Planner

Search our weather history database for the weather conditions in past years. The results will help you decide how hot, cold, wet, or windy it might be!

Date:

Astronomy

Sep. 20, 2012 Rise Set
Actual Time 6:27 AM PDT 6:39 PM PDT
Civil Twilight 6:01 AM PDT 7:05 PM PDT
Nautical Twilight 5:31 AM PDT 7:35 PM PDT
Astronomical Twilight 5:01 AM PDT 8:05 PM PDT
Moon 11:39 AM PDT (9/20) 9:56 PM PDT (9/20)
Length of Visible Light 13h 03m
Length of Day
12h 12m
Waxing Crescent, 28% of the Moon is Illuminated
Sep 20
Waxing Crescent
Sep 22
First Quarter
Sep 29
Full
Oct 8
Last Quarter
Oct 15
New

Hourly Weather History & Observations

Time (PDT) Temp. Dew Point Humidity Pressure Visibility Wind Dir Wind Speed Gust Speed Precip Events Conditions
12:53 AM 77.0 °F 37.9 °F 24% 29.96 in 10.0 mi ENE 3.5 mph - N/A   Clear
1:53 AM 75.9 °F 37.9 °F 25% 29.96 in 10.0 mi Calm Calm - N/A   Clear
2:53 AM 73.0 °F 39.9 °F 30% 29.96 in 10.0 mi North 5.8 mph - N/A   Clear
3:53 AM 72.0 °F 41.0 °F 33% 29.96 in 10.0 mi Calm Calm - N/A   Clear
4:53 AM 72.0 °F 36.0 °F 27% 29.97 in 10.0 mi NNW 5.8 mph - N/A   Clear
5:53 AM 72.0 °F 39.0 °F 30% 29.98 in 10.0 mi WNW 3.5 mph - N/A   Clear
6:53 AM 70.0 °F 39.9 °F 33% 30.01 in 10.0 mi Calm Calm - N/A   Clear
7:53 AM 75.9 °F 39.0 °F 26% 30.01 in 10.0 mi WNW 3.5 mph - N/A   Clear
8:53 AM 81.0 °F 36.0 °F 20% 30.02 in 10.0 mi Calm Calm - N/A   Clear
9:53 AM 86.0 °F 36.0 °F 17% 30.02 in 10.0 mi Calm Calm - N/A   Clear
10:53 AM 89.1 °F 34.0 °F 14% 30.02 in 10.0 mi Calm Calm - N/A   Clear
11:53 AM 91.9 °F 28.9 °F 11% 30.00 in 10.0 mi Calm Calm - N/A   Clear
12:53 PM 93.9 °F 30.0 °F 10% 29.98 in 10.0 mi ESE 3.5 mph - N/A   Clear
1:53 PM 95.0 °F 30.0 °F 10% 29.95 in 10.0 mi Calm Calm - N/A   Clear
2:53 PM 96.1 °F 28.9 °F 9% 29.93 in 10.0 mi SW 8.1 mph - N/A   Clear
3:53 PM 95.0 °F 28.0 °F 9% 29.92 in 10.0 mi WSW 5.8 mph - N/A   Clear
4:53 PM 93.9 °F 30.0 °F 10% 29.91 in 10.0 mi SSW 4.6 mph - N/A   Clear
5:53 PM 95.0 °F 28.9 °F 10% 29.91 in 10.0 mi Calm Calm - N/A   Clear
6:53 PM 93.0 °F 30.0 °F 11% 29.91 in 10.0 mi Calm Calm - N/A   Clear
7:53 PM 86.0 °F 35.1 °F 16% 29.91 in 10.0 mi WNW 4.6 mph - N/A   Clear
8:53 PM 86.0 °F 36.0 °F 17% 29.92 in 10.0 mi North 3.5 mph - N/A   Clear
9:53 PM 82.9 °F 37.0 °F 19% 29.91 in 10.0 mi West 3.5 mph - N/A   Clear
10:53 PM 80.1 °F 39.0 °F 23% 29.91 in 10.0 mi Calm Calm - N/A   Clear
11:53 PM 75.9 °F 41.0 °F 29% 29.92 in 10.0 mi NNW 3.5 mph - N/A   Clear